Location: Cran-Gévrier
(45.9039°N, 6.1012°E)
Time: 10:20:44
(UTC+00:00)

Cosmos 2154 Rocket - Pass Details

Date: 09 February 2023
Orbit: 965 x 997 km, 82.9° (Epoch: 20 March)

Event Time Altitude Azimuth Distance (km) Brightness Sun altitude
Rises 19:09:54 0° 355° (N) 3,726 7.2 -24.3°
Reaches altitude 10° 19:12:33 10° 1° (N) 2,771 6.4 -24.7°
Enters shadow 19:17:23 43° 41° (NE) 1,373 4.5 -25.6°
